| time (UTC) | temp C | wind direction | speed KPH | gust KPH | rain 1hr cm | rain 24hr cm | rain mn cm | humidity % | barometer mb |
| 20260502163009 | 22 | 45 | 0.0 | 14.5 | 0.00 | 0.00 | 0.00 | 42 | 1018.4 |
| 20260502162009 | 22 | 270 | 0.0 | 11.3 | 0.00 | 0.00 | 0.00 | 42 | 1018.6 |
| 20260502161009 | 22 | 180 | 0.0 | 8.0 | 0.00 | 0.00 | 0.00 | 41 | 1018.8 |
| 20260502152009 | 23 | 180 | 0.0 | 8.0 | 0.00 | 0.00 | 0.00 | 38 | 1019.4 |
| 20260502151009 | 23 | 202 | 0.0 | 9.7 | 0.00 | 0.00 | 0.00 | 37 | 1019.4 |
| 20260502123010 | 30 | 67 | 0.0 | 12.9 | 0.00 | 0.00 | 0.00 | 28 | 1021.2 |
| 20260502122010 | 31 | 67 | 0.0 | 12.9 | 0.00 | 0.00 | 0.00 | 27 | 1021.2 |
| 20260502121010 | 31 | 247 | 0.0 | 9.7 | 0.00 | 0.00 | 0.00 | 27 | 1021.4 |
| 20260502115010 | 31 | 225 | 0.0 | 12.9 | 0.00 | 0.00 | 0.00 | 27 | 1021.5 |
| 20260502114010 | 31 | 202 | 8.0 | 11.3 | 0.00 | 0.00 | 0.00 | 27 | 1021.5 |
| 20260502113010 | 30 | 247 | 0.0 | 14.5 | 0.00 | 0.00 | 0.00 | 27 | 1021.7 |
| 20260502112010 | 31 | 202 | 8.0 | 16.1 | 0.00 | 0.00 | 0.00 | 26 | 1021.7 |
| 20260502111010 | 30 | 45 | 0.0 | 8.0 | 0.00 | 0.00 | 0.00 | 28 | 1021.8 |
| 20260502110010 | 30 | 225 | 0.0 | 11.3 | 0.00 | 0.00 | 0.00 | 27 | 1022.0 |
| 20260502105010 | 30 | 45 | 0.0 | 9.7 | 0.00 | 0.00 | 0.00 | 28 | 1022.1 |
| 20260502104010 | 29 | 247 | 0.0 | 16.1 | 0.00 | 0.00 | 0.00 | 28 | 1022.3 |
| 20260502103010 | 29 | 135 | 0.0 | 6.4 | 0.00 | 0.00 | 0.00 | 29 | 1022.4 |
| 20260502102010 | 28 | 225 | 0.0 | 0.0 | 0.00 | 0.00 | 0.00 | 29 | 1022.4 |
| 20260502101010 | 28 | 225 | 0.0 | 8.0 | 0.00 | 0.00 | 0.00 | 29 | 1022.7 |
| 20260502091011 | 24 | 180 | 0.0 | 9.7 | 0.00 | 0.00 | 0.00 | 32 | 1023.0 |
| 20260502071011 | 20 | 225 | 0.0 | 9.7 | 0.00 | 0.00 | 0.00 | 37 | 1023.4 |
| 20260502070011 | 20 | 225 | 0.0 | 9.7 | 0.00 | 0.00 | 0.00 | 37 | 1023.3 |
| 20260502065011 | 19 | 202 | 0.0 | 9.7 | 0.00 | 0.00 | 0.00 | 38 | 1023.3 |
| 20260502064011 | 20 | 247 | 0.0 | 6.4 | 0.00 | 0.00 | 0.00 | 38 | 1023.2 |
| 20260502063011 | 19 | 180 | 0.0 | 9.7 | 0.00 | 0.00 | 0.00 | 38 | 1023.2 |
| 20260502062011 | 20 | 112 | 0.0 | 6.4 | 0.00 | 0.00 | 0.00 | 38 | 1023.2 |
| 20260502061011 | 20 | 225 | 0.0 | 6.4 | 0.00 | 0.00 | 0.00 | 38 | 1023.1 |
| 20260502060011 | 20 | 202 | 0.0 | 0.0 | 0.00 | 0.00 | 0.00 | 40 | 1023.2 |
| 20260502055011 | 20 | 180 | 0.0 | 0.0 | 0.00 | 0.00 | 0.00 | 40 | 1023.3 |
| 20260502054011 | 19 | 202 | 0.0 | 0.0 | 0.00 | 0.00 | 0.00 | 43 | 1023.3 |
| 20260502053011 | 18 | 67 | 0.0 | 0.0 | 0.00 | 0.00 | 0.00 | 43 | 1023.2 |
| 20260502052011 | 17 | 45 | 0.0 | 0.0 | 0.00 | 0.00 | 0.00 | 46 | 1023.1 |
| 20260502051011 | 16 | 22 | 0.0 | 0.0 | 0.00 | 0.00 | 0.00 | 48 | 1023.1 |
| 20260502050011 | 15 | 45 | 0.0 | 0.0 | 0.00 | 0.00 | 0.00 | 51 | 1023.0 |
| 20260502045011 | 13 | 45 | 0.0 | 0.0 | 0.00 | 0.00 | 0.00 | 55 | 1023.3 |
| 20260502044011 | 11 | 45 | 0.0 | 0.0 | 0.00 | 0.00 | 0.00 | 61 | 1023.4 |
| 20260502043011 | 8 | 0 | 0.0 | 0.0 | 0.00 | 0.00 | 0.00 | 64 | 1023.5 |
| 20260502042012 | 7 | 315 | 0.0 | 0.0 | 0.00 | 0.00 | 0.00 | 64 | 1023.4 |
| 20260502041012 | 7 | 0 | 0.0 | 0.0 | 0.00 | 0.00 | 0.00 | 62 | 1023.3 |
| 20260502040012 | 8 | 45 | 0.0 | 0.0 | 0.00 | 0.00 | 0.00 | 62 | 1023.3 |
| 20260502035012 | 8 | 45 | 0.0 | 0.0 | 0.00 | 0.00 | 0.00 | 63 | 1023.2 |
| 20260502034012 | 8 | 45 | 0.0 | 0.0 | 0.00 | 0.00 | 0.00 | 62 | 1023.2 |
| 20260502033012 | 8 | 45 | 0.0 | 0.0 | 0.00 | 0.00 | 0.00 | 63 | 1023.4 |
| 20260502032012 | 8 | 45 | 0.0 | 0.0 | 0.00 | 0.00 | 0.00 | 62 | 1023.5 |
| 20260502031012 | 8 | 45 | 0.0 | 0.0 | 0.00 | 0.00 | 0.00 | 63 | 1023.3 |
| 20260502030012 | 8 | 45 | 0.0 | 0.0 | 0.00 | 0.00 | 0.00 | 63 | 1023.3 |
| 20260502025012 | 8 | 0 | 0.0 | 0.0 | 0.00 | 0.00 | 0.00 | 63 | 1023.5 |
| 20260502024012 | 7 | 45 | 0.0 | 0.0 | 0.00 | 0.00 | 0.00 | 63 | 1023.5 |
| 20260502023012 | 7 | 45 | 0.0 | 0.0 | 0.00 | 0.00 | 0.00 | 63 | 1023.5 |
| 20260502022012 | 7 | 0 | 0.0 | 0.0 | 0.00 | 0.00 | 0.00 | 63 | 1023.5 |
| 20260502021012 | 7 | 22 | 0.0 | 0.0 | 0.00 | 0.00 | 0.00 | 63 | 1023.6 |
| 20260502020012 | 7 | 45 | 0.0 | 0.0 | 0.00 | 0.00 | 0.00 | 63 | 1023.7 |
| 20260502015012 | 7 | 45 | 0.0 | 0.0 | 0.00 | 0.00 | 0.00 | 63 | 1023.6 |
| 20260502014012 | 7 | 337 | 0.0 | 0.0 | 0.00 | 0.00 | 0.00 | 63 | 1023.9 |
| 20260502013012 | 7 | 270 | 0.0 | 0.0 | 0.00 | 0.00 | 0.00 | 62 | 1024.0 |
| 20260502012012 | 7 | 0 | 0.0 | 0.0 | 0.00 | 0.00 | 0.00 | 62 | 1024.0 |
| 20260502011012 | 8 | 0 | 0.0 | 0.0 | 0.00 | 0.00 | 0.00 | 61 | 1024.1 |
| 20260502010012 | 8 | 22 | 0.0 | 0.0 | 0.00 | 0.00 | 0.00 | 60 | 1024.2 |
| 20260502005012 | 8 | 45 | 0.0 | 0.0 | 0.00 | 0.00 | 0.00 | 58 | 1024.2 |
| 20260502004012 | 9 | 22 | 0.0 | 0.0 | 0.00 | 0.00 | 0.00 | 58 | 1024.3 |
| 20260502003012 | 10 | 112 | 0.0 | 0.0 | 0.00 | 0.00 | 0.00 | 58 | 1024.5 |
| 20260502002012 | 10 | 0 | 0.0 | 0.0 | 0.00 | 0.00 | 0.00 | 57 | 1024.4 |
| 20260502001012 | 10 | 112 | 0.0 | 0.0 | 0.00 | 0.00 | 0.00 | 58 | 1024.6 |
| 20260502000012 | 10 | 135 | 0.0 | 0.0 | 0.00 | 0.00 | 0.00 | 57 | 1024.6 |
| 20260501235012 | 10 | 45 | 0.0 | 0.0 | 0.00 | 0.00 | 0.00 | 57 | 1024.7 |
| 20260501234012 | 10 | 225 | 0.0 | 0.0 | 0.00 | 0.00 | 0.00 | 56 | 1024.7 |
| 20260501233012 | 10 | 225 | 0.0 | 0.0 | 0.00 | 0.00 | 0.00 | 56 | 1024.7 |
| 20260501232012 | 10 | 45 | 0.0 | 0.0 | 0.00 | 0.00 | 0.00 | 55 | 1024.8 |
| 20260501231013 | 10 | 202 | 0.0 | 0.0 | 0.00 | 0.00 | 0.00 | 55 | 1024.8 |
| 20260501230013 | 10 | 225 | 0.0 | 0.0 | 0.00 | 0.00 | 0.00 | 55 | 1025.0 |
| 20260501225013 | 11 | 225 | 0.0 | 8.0 | 0.00 | 0.00 | 0.00 | 54 | 1025.0 |
| 20260501224013 | 11 | 45 | 0.0 | 0.0 | 0.00 | 0.00 | 0.00 | 54 | 1025.0 |
| 20260501223013 | 11 | 337 | 0.0 | 0.0 | 0.00 | 0.00 | 0.00 | 53 | 1025.0 |
| 20260501222013 | 11 | 292 | 0.0 | 0.0 | 0.00 | 0.00 | 0.00 | 53 | 1025.1 |
| 20260501221013 | 11 | 225 | 0.0 | 3.2 | 0.00 | 0.00 | 0.00 | 52 | 1025.1 |
| 20260501220013 | 11 | 45 | 0.0 | 0.0 | 0.00 | 0.00 | 0.00 | 52 | 1025.1 |
| 20260501215013 | 11 | 202 | 0.0 | 0.0 | 0.00 | 0.00 | 0.00 | 52 | 1025.2 |
| 20260501214013 | 12 | 225 | 0.0 | 0.0 | 0.00 | 0.00 | 0.00 | 52 | 1025.3 |
| 20260501213013 | 12 | 180 | 0.0 | 0.0 | 0.00 | 0.00 | 0.00 | 52 | 1025.2 |
| 20260501212013 | 12 | 315 | 0.0 | 0.0 | 0.00 | 0.00 | 0.00 | 52 | 1025.1 |
| 20260501211013 | 12 | 0 | 0.0 | 0.0 | 0.00 | 0.00 | 0.00 | 52 | 1025.4 |
| 20260501210013 | 11 | 112 | 0.0 | 0.0 | 0.00 | 0.00 | 0.00 | 52 | 1025.2 |
| 20260501205013 | 11 | 247 | 0.0 | 0.0 | 0.00 | 0.00 | 0.00 | 51 | 1025.2 |
| 20260501204013 | 11 | 202 | 0.0 | 0.0 | 0.00 | 0.00 | 0.00 | 51 | 1025.3 |
| 20260501203013 | 11 | 67 | 0.0 | 0.0 | 0.00 | 0.00 | 0.00 | 51 | 1025.2 |
| 20260501202013 | 11 | 67 | 0.0 | 0.0 | 0.00 | 0.00 | 0.00 | 51 | 1025.2 |
| 20260501201013 | 11 | 67 | 0.0 | 0.0 | 0.00 | 0.00 | 0.00 | 50 | 1025.2 |
| 20260501200013 | 11 | 180 | 0.0 | 0.0 | 0.00 | 0.00 | 0.00 | 48 | 1025.2 |
| 20260501195013 | 12 | 112 | 0.0 | 0.0 | 0.00 | 0.00 | 0.00 | 47 | 1025.3 |
| 20260501194013 | 13 | 67 | 0.0 | 0.0 | 0.00 | 0.00 | 0.00 | 45 | 1025.2 |
| 20260501193013 | 13 | 337 | 0.0 | 0.0 | 0.00 | 0.00 | 0.00 | 44 | 1025.2 |
| 20260501192013 | 14 | 202 | 0.0 | 0.0 | 0.00 | 0.00 | 0.00 | 44 | 1025.0 |
| 20260501191013 | 14 | 45 | 0.0 | 8.0 | 0.00 | 0.00 | 0.00 | 44 | 1025.1 |
| 20260501190013 | 14 | 112 | 0.0 | 8.0 | 0.00 | 0.00 | 0.00 | 44 | 1025.0 |
| 20260501185013 | 14 | 90 | 0.0 | 0.0 | 0.00 | 0.00 | 0.00 | 43 | 1025.0 |
| 20260501184013 | 15 | 90 | 0.0 | 0.0 | 0.00 | 0.00 | 0.00 | 42 | 1025.1 |
| 20260501183013 | 15 | 0 | 0.0 | 0.0 | 0.00 | 0.00 | 0.00 | 41 | 1025.2 |
| 20260501182013 | 16 | 315 | 0.0 | 0.0 | 0.00 | 0.00 | 0.00 | 40 | 1025.1 |
| 20260501181013 | 16 | 67 | 0.0 | 6.4 | 0.00 | 0.00 | 0.00 | 39 | 1024.9 |
| 20260501180013 | 16 | 180 | 0.0 | 0.0 | 0.00 | 0.00 | 0.00 | 39 | 1025.0 |
| 20260501175013 | 16 | 45 | 0.0 | 4.8 | 0.00 | 0.00 | 0.00 | 38 | 1024.9 |
| 20260501174014 | 17 | 45 | 0.0 | 6.4 | 0.00 | 0.00 | 0.00 | 37 | 1024.8 |
| 20260501173014 | 17 | 67 | 0.0 | 0.0 | 0.00 | 0.00 | 0.00 | 37 | 1025.0 |
| 20260501172014 | 17 | 202 | 0.0 | 6.4 | 0.00 | 0.00 | 0.00 | 36 | 1025.0 |
| 20260501171014 | 17 | 67 | 0.0 | 9.7 | 0.00 | 0.00 | 0.00 | 36 | 1025.0 |
| 20260501170014 | 17 | 180 | 0.0 | 12.9 | 0.00 | 0.00 | 0.00 | 35 | 1025.2 |
| 20260501165014 | 17 | 202 | 0.0 | 0.0 | 0.00 | 0.00 | 0.00 | 35 | 1025.2 |
| 20260501164014 | 17 | 67 | 0.0 | 6.4 | 0.00 | 0.00 | 0.00 | 34 | 1025.3 |